Regional Weather Roundup
Issued by NWS Little Rock, AR

Home | Current Version | Previous Version | Graphics & Text | Print | Product List | Glossary On
Versions: 1 2 3 4 5 6 7 8 9 10 11 12 13 14 15 16 17 18 19 20 21 22 23 24 25 26 27 28 29 30 31 32 33 34 35 36 37 38 39 40 41 42 43 44 45 46 47 48 49 50
154
ASUS44 KLZK 231505
RWRLZK

WEATHER ROUNDUP FOR ARKANSAS
NATIONAL WEATHER SERVICE LITTLE ROCK AR
1000 AM CDT MON APR 23 2018

NOTE: "FAIR" INDICATES FEW OR NO CLOUDS BELOW 12,000 FEET WITH NO
SIGNIFICANT WEATHER AND/OR OBSTRUCTIONS TO VISIBILITY.

ARZ001-003-010-029-231600-
NORTHWEST ARKANSAS

CITY           SKY/WX    TMP DP  RH WIND       PRES   REMARKS
FAYETTEVILLE   CLOUDY    55  52  89 N6        30.01R
FORT SMITH     CLOUDY    57  52  83 W12       30.01R
HARRISON       CLOUDY    55  52  89 NW10      29.97S
BENTONVILLE    CLOUDY    56  51  84 N13G18    30.03S
ROGERS         CLOUDY    56  50  80 N13G22    30.02R
SILOAM SPGS    CLOUDY    57  51  80 N12       30.03R
HIGHFILL       CLOUDY    57  52  83 N15       30.02S
SPRINGDALE     PTSUNNY   55  55 100 NE12G18   30.02S
$$

ARZ004-005-016-231600-
NORTH CENTRAL ARKANSAS

CITY           SKY/WX    TMP DP  RH WIND       PRES   REMARKS
BATESVILLE     LGT RAIN  55  54  96 NW3       29.90S FOG
FLIPPIN        CLOUDY    56  52  86 NW8       29.94F
MTN HOME       CLOUDY    56  52  86 N8        29.92S
$$

ARZ040-041-231600-
WEST CENTRAL ARKANSAS

CITY           SKY/WX    TMP DP  RH WIND       PRES   REMARKS
MENA           CLOUDY    55  55 100 W7        30.00S
MOUNT IDA      CLOUDY    59  52  77 VRB6      29.95R
$$

ARZ009-017-025-026-028-231600-
NORTHEAST ARKANSAS

CITY           SKY/WX    TMP DP  RH WIND       PRES   REMARKS
CORNING        FAIR      52  54 100 NW12      29.86S FOG
JONESBORO      LGT RAIN  54  53  97 N7        29.87R
NEWPORT        CLOUDY    55  53  93 N9        29.89R
WALNUT RIDGE   LGT RAIN  53  51  93 N13       29.87S
BLYTHEVILLE    RAIN      55  55 100 NW8       29.85R FOG
NW BLYTHEVILLE LGT RAIN  55  54  94 NW9       29.85R FOG
$$

ARZ022-023-033-042-044-231600-
CENTRAL ARKANSAS

CITY           SKY/WX    TMP DP  RH WIND       PRES   REMARKS
LITTLE ROCK    CLOUDY    59  55  87 W10       29.92S
N LITTLE ROCK    N/A     57  54  91 W6        29.89S
JACKSONVILLE   CLOUDY    61  55  81 NW12      29.90S
CONWAY         CLOUDY    61  55  82 NW8       29.92S
SEARCY         CLOUDY    58  57  97 N6        29.90S
HOT SPRINGS    CLOUDY    59  53  80 W7        29.95S
RUSSELLVILLE   CLOUDY    59  54  83 NW8       29.94R
CLINTON        CLOUDY    59  54  82 VRB3      29.92S
$$

ARZ036-231600-
EAST ARKANSAS

CITY           SKY/WX    TMP DP  RH WIND       PRES   REMARKS
WEST MEMPHIS   LGT RAIN  57  57 100 VRB7      29.86S FOG
$$

ARZ050-053-066-070-073-231600-
SOUTHWEST ARKANSAS

CITY           SKY/WX    TMP DP  RH WIND       PRES   REMARKS
ARKADELPHIA    CLOUDY    60  54  80 W8        29.97S
CAMDEN         CLOUDY    59  52  77 VRB6      29.97F
TEXARKANA      CLOUDY    57  53  86 NW12      30.00S
EL DORADO      CLOUDY    59  55  87 NW6       29.99R
DE QUEEN       CLOUDY    60  51  72 NW10      29.99R
$$

ARZ056-057-069-231600-
SOUTHEAST ARKANSAS

CITY           SKY/WX    TMP DP  RH WIND       PRES   REMARKS
PINE BLUFF     CLOUDY    58  52  80 W10       29.93S
STUTTGART      CLOUDY    56  55  97 W12       29.91S
MONTICELLO     CLOUDY    59  52  77 W8        29.95S

$$






USA.gov is the U.S. government's official web portal to all federal, state and local government web resources and services.